Time,TemperatureF,DewpointF,PressureIn,WindDirection,WindDirectionDegrees,WindSpeedMPH,WindSpeedGustMPH,Humidity,HourlyPrecipIn,Conditions,Clouds,dailyrainin,SolarRadiationWatts/m^2,SoftwareType,DateUTC
2013-07-18 00:00:00,72.0,59.6,29.92,WSW,242,0.0,17.0,65,0.00,,,0.01,0,Wunderground v.1.15,2013-07-18 07:00:00,
2013-07-18 00:10:00,72.0,59.6,29.91,WSW,242,0.0,17.0,65,0.00,,,0.00,0,Wunderground v.1.15,2013-07-18 07:10:00,
2013-07-18 00:20:00,72.0,59.2,29.90,WSW,242,0.0,17.0,64,0.00,,,0.00,0,Wunderground v.1.15,2013-07-18 07:20:00,
2013-07-18 00:30:00,71.9,59.5,29.90,WSW,242,0.0,17.0,65,0.00,,,0.00,0,Wunderground v.1.15,2013-07-18 07:30:00,
2013-07-18 00:40:00,71.7,59.3,29.89,South,183,1.0,17.0,65,0.00,,,0.00,0,Wunderground v.1.15,2013-07-18 07:40:00,
2013-07-18 00:50:00,71.7,59.3,29.89,South,182,1.0,1.0,65,0.00,,,0.00,0,Wunderground v.1.15,2013-07-18 07:50:00,
2013-07-18 01:00:00,71.6,60.1,29.89,SW,224,1.0,1.0,67,0.00,,,0.00,0,Wunderground v.1.15,2013-07-18 08:00:00,
2013-07-18 01:10:00,71.1,60.4,29.88,SSW,196,1.0,17.0,69,0.00,,,0.00,0,Wunderground v.1.15,2013-07-18 08:10:00,
2013-07-18 01:20:00,70.6,60.3,29.88,SSW,199,1.0,1.0,70,0.00,,,0.00,0,Wunderground v.1.15,2013-07-18 08:20:00,
2013-07-18 01:30:00,70.2,60.4,29.88,SSE,162,1.0,17.0,71,0.00,,,0.00,0,Wunderground v.1.15,2013-07-18 08:30:00,
2013-07-18 01:40:00,69.8,61.1,29.88,SE,145,0.0,17.0,74,0.00,,,0.00,0,Wunderground v.1.15,2013-07-18 08:40:00,
2013-07-18 01:50:00,69.4,60.8,29.87,SE,134,0.0,17.0,74,0.00,,,0.00,0,Wunderground v.1.15,2013-07-18 08:50:00,
2013-07-18 02:00:00,69.1,60.8,29.87,East,101,1.0,17.0,75,0.00,,,0.00,0,Wunderground v.1.15,2013-07-18 09:00:00,
2013-07-18 02:10:00,68.9,60.6,29.86,SE,126,1.0,1.0,75,0.00,,,0.00,0,Wunderground v.1.15,2013-07-18 09:10:00,
2013-07-18 02:20:00,68.8,59.8,29.86,SE,126,1.0,17.0,73,0.00,,,0.00,0,Wunderground v.1.15,2013-07-18 09:20:00,
2013-07-18 02:30:00,69.2,59.8,29.86,East,101,3.0,3.0,72,0.00,,,0.00,0,Wunderground v.1.15,2013-07-18 09:30:00,
2013-07-18 02:40:00,69.0,60.0,29.87,ENE,68,0.0,17.0,73,0.00,,,0.00,0,Wunderground v.1.15,2013-07-18 09:40:00,
2013-07-18 02:50:00,68.4,60.2,29.86,West,273,0.0,17.0,75,0.00,,,0.00,0,Wunderground v.1.15,2013-07-18 09:50:00,
2013-07-18 03:00:00,67.8,60.0,29.86,West,273,0.0,17.0,76,0.00,,,0.00,0,Wunderground v.1.15,2013-07-18 10:00:00,
2013-07-18 03:10:00,67.5,59.3,29.86,West,273,0.0,17.0,75,0.00,,,0.00,0,Wunderground v.1.15,2013-07-18 10:10:00,
2013-07-18 03:20:00,67.5,59.7,29.86,SSE,163,0.0,17.0,76,0.00,,,0.00,0,Wunderground v.1.15,2013-07-18 10:20:00,
2013-07-18 03:30:00,67.4,59.6,29.87,SSE,163,0.0,17.0,76,0.00,,,0.00,0,Wunderground v.1.15,2013-07-18 10:30:00,
2013-07-18 03:40:00,67.2,59.4,29.87,SE,139,0.0,17.0,76,0.00,,,0.00,0,Wunderground v.1.15,2013-07-18 10:40:00,
2013-07-18 03:50:00,67.1,59.6,29.87,SSE,153,0.0,17.0,77,0.00,,,0.00,0,Wunderground v.1.15,2013-07-18 10:50:00,
2013-07-18 04:00:00,66.9,59.5,29.87,SSE,167,0.0,17.0,77,0.00,,,0.00,0,Wunderground v.1.15,2013-07-18 11:00:00,
2013-07-18 04:10:00,66.7,59.6,29.88,SSW,206,1.0,1.0,78,0.00,,,0.00,0,Wunderground v.1.15,2013-07-18 11:10:00,
2013-07-18 04:20:00,66.5,59.4,29.87,South,182,1.0,1.0,78,0.00,,,0.00,0,Wunderground v.1.15,2013-07-18 11:20:00,
2013-07-18 04:30:00,66.5,59.1,29.88,South,186,2.0,17.0,77,0.00,,,0.00,0,Wunderground v.1.15,2013-07-18 11:30:00,
2013-07-18 04:40:00,66.4,59.0,29.87,SSE,163,3.0,17.0,77,0.00,,,0.00,0,Wunderground v.1.15,2013-07-18 11:40:00,
2013-07-18 04:50:00,66.4,59.3,29.88,SSE,153,3.0,17.0,78,0.00,,,0.00,0,Wunderground v.1.15,2013-07-18 11:50:00,
2013-07-18 05:00:00,66.4,59.3,29.88,SE,144,3.0,17.0,78,0.00,,,0.00,0,Wunderground v.1.15,2013-07-18 12:00:00,
2013-07-18 05:10:00,66.3,59.2,29.89,South,170,2.0,2.0,78,0.00,,,0.00,0,Wunderground v.1.15,2013-07-18 12:10:00,
2013-07-18 05:20:00,66.1,59.4,29.88,SSW,211,1.0,1.0,79,0.00,,,0.00,0,Wunderground v.1.15,2013-07-18 12:20:00,
2013-07-18 05:30:00,65.8,59.1,29.88,SSW,196,1.0,1.0,79,0.00,,,0.00,0,Wunderground v.1.15,2013-07-18 12:30:00,
2013-07-18 05:40:00,65.6,59.3,29.89,SSE,168,0.0,17.0,80,0.00,,,0.00,7,Wunderground v.1.15,2013-07-18 12:40:00,
2013-07-18 05:50:00,65.4,59.4,29.90,South,180,0.0,17.0,81,0.00,,,0.00,16,Wunderground v.1.15,2013-07-18 12:50:00,
2013-07-18 06:00:00,65.0,59.4,29.89,SW,231,0.0,17.0,82,0.00,,,0.00,28,Wunderground v.1.15,2013-07-18 13:00:00,
2013-07-18 06:10:00,65.1,59.8,29.90,SSW,196,0.0,0.0,83,0.00,,,0.00,65,Wunderground v.1.15,2013-07-18 13:10:00,
2013-07-18 06:20:00,65.7,59.7,29.90,SSE,161,0.0,0.0,81,0.00,,,0.00,100,Wunderground v.1.15,2013-07-18 13:20:00,
2013-07-18 06:30:00,66.7,60.3,29.90,SSE,158,0.0,0.0,80,0.00,,,0.00,134,Wunderground v.1.15,2013-07-18 13:30:00,
2013-07-18 06:40:00,67.7,60.6,29.90,SSE,153,0.0,0.0,78,0.00,,,0.00,174,Wunderground v.1.15,2013-07-18 13:40:00,
2013-07-18 06:50:00,68.6,60.4,29.90,SE,126,0.0,0.0,75,0.00,,,0.00,209,Wunderground v.1.15,2013-07-18 13:50:00,
2013-07-18 07:00:00,69.4,60.4,29.91,SE,141,0.0,0.0,73,0.00,,,0.00,241,Wunderground v.1.15,2013-07-18 14:00:00,
2013-07-18 07:10:00,70.6,60.7,29.90,ESE,102,0.0,6.0,71,0.00,,,0.00,271,Wunderground v.1.15,2013-07-18 14:10:00,
2013-07-18 07:20:00,71.3,59.8,29.90,East,88,4.0,4.0,67,0.00,,,0.00,309,Wunderground v.1.15,2013-07-18 14:20:00,
2013-07-18 07:30:00,71.3,59.8,29.91,ENE,78,2.0,2.0,67,0.00,,,0.00,63,Wunderground v.1.15,2013-07-18 14:30:00,
2013-07-18 07:40:00,71.6,60.5,29.91,SE,140,0.0,6.0,68,0.00,,,0.00,380,Wunderground v.1.15,2013-07-18 14:40:00,
2013-07-18 07:50:00,72.4,59.5,29.91,SE,131,2.0,6.0,64,0.00,,,0.00,417,Wunderground v.1.15,2013-07-18 14:50:00,
2013-07-18 08:00:00,73.3,60.4,29.91,ESE,113,0.0,6.0,64,0.00,,,0.00,452,Wunderground v.1.15,2013-07-18 15:00:00,
2013-07-18 08:10:00,74.1,59.8,29.90,ENE,62,0.0,0.0,61,0.00,,,0.00,492,Wunderground v.1.15,2013-07-18 15:10:00,
2013-07-18 08:20:00,75.0,61.1,29.90,ENE,62,0.0,0.0,62,0.00,,,0.00,540,Wunderground v.1.15,2013-07-18 15:20:00,
2013-07-18 08:30:00,75.9,60.5,29.90,ESE,104,1.0,1.0,59,0.00,,,0.00,568,Wunderground v.1.15,2013-07-18 15:30:00,
2013-07-18 08:40:00,76.0,59.7,29.90,East,89,1.0,1.0,57,0.00,,,0.00,589,Wunderground v.1.15,2013-07-18 15:40:00,
2013-07-18 08:50:00,76.2,58.9,29.89,NE,44,0.0,0.0,55,0.00,,,0.00,621,Wunderground v.1.15,2013-07-18 15:50:00,
2013-07-18 09:00:00,76.4,58.0,29.90,NE,49,0.0,0.0,53,0.00,,,0.00,649,Wunderground v.1.15,2013-07-18 16:00:00,
2013-07-18 09:10:00,77.2,59.3,29.89,ESE,102,0.0,5.0,54,0.00,,,0.00,737,Wunderground v.1.15,2013-07-18 16:10:00,
2013-07-18 09:20:00,77.0,58.6,29.89,South,171,2.0,5.0,53,0.00,,,0.00,410,Wunderground v.1.15,2013-07-18 16:20:00,
2013-07-18 09:30:00,76.9,59.5,29.89,East,96,1.0,5.0,55,0.00,,,0.00,227,Wunderground v.1.15,2013-07-18 16:30:00,
2013-07-18 09:40:00,77.2,60.3,29.89,SSW,194,1.0,1.0,56,0.00,,,0.00,853,Wunderground v.1.15,2013-07-18 16:40:00,
2013-07-18 09:50:00,77.9,59.9,29.89,ESE,123,5.0,5.0,54,0.00,,,0.00,877,Wunderground v.1.15,2013-07-18 16:50:00,
2013-07-18 10:00:00,77.8,59.8,29.88,East,98,7.0,9.0,54,0.00,,,0.00,846,Wunderground v.1.15,2013-07-18 17:00:00,
2013-07-18 10:10:00,77.5,60.6,29.87,ESE,119,7.0,10.0,56,0.00,,,0.00,846,Wunderground v.1.15,2013-07-18 17:10:00,
2013-07-18 10:20:00,77.7,60.2,29.87,SE,130,6.0,6.0,55,0.00,,,0.00,868,Wunderground v.1.15,2013-07-18 17:20:00,
2013-07-18 10:30:00,77.8,60.8,29.87,SE,142,6.0,11.0,56,0.00,,,0.00,900,Wunderground v.1.15,2013-07-18 17:30:00,
2013-07-18 10:40:00,78.0,60.0,29.87,SE,146,7.0,7.0,54,0.00,,,0.00,923,Wunderground v.1.15,2013-07-18 17:40:00,
2013-07-18 10:50:00,78.4,60.9,29.86,SSE,164,4.0,6.0,55,0.00,,,0.00,939,Wunderground v.1.15,2013-07-18 17:50:00,
2013-07-18 11:00:00,79.2,61.1,29.86,ESE,123,5.0,7.0,54,0.00,,,0.00,1132,Wunderground v.1.15,2013-07-18 18:00:00,
2013-07-18 11:10:00,79.1,59.4,29.86,West,267,4.0,4.0,51,0.00,,,0.00,1076,Wunderground v.1.15,2013-07-18 18:10:00,
2013-07-18 11:20:00,79.5,58.7,29.85,East,88,3.0,3.0,49,0.00,,,0.00,373,Wunderground v.1.15,2013-07-18 18:20:00,
2013-07-18 11:30:00,79.7,60.0,29.86,East,92,3.0,8.0,51,0.00,,,0.00,394,Wunderground v.1.15,2013-07-18 18:30:00,
2013-07-18 11:40:00,78.9,59.8,29.86,ENE,77,5.0,5.0,52,0.00,,,0.00,373,Wunderground v.1.15,2013-07-18 18:40:00,
2013-07-18 11:50:00,79.2,60.6,29.86,SE,124,1.0,6.0,53,0.00,,,0.00,295,Wunderground v.1.15,2013-07-18 18:50:00,
2013-07-18 12:00:00,78.7,59.6,29.85,ESE,113,4.0,4.0,52,0.00,,,0.00,260,Wunderground v.1.15,2013-07-18 19:00:00,
2013-07-18 12:10:00,78.8,60.7,29.84,SSE,166,2.0,15.0,54,0.00,,,0.00,308,Wunderground v.1.15,2013-07-18 19:10:00,
2013-07-18 12:20:00,79.5,59.8,29.84,ESE,112,3.0,3.0,51,0.00,,,0.00,406,Wunderground v.1.15,2013-07-18 19:20:00,
2013-07-18 12:30:00,80.2,59.9,29.83,SE,141,4.0,4.0,50,0.00,,,0.00,343,Wunderground v.1.15,2013-07-18 19:30:00,
2013-07-18 12:40:00,81.5,58.7,29.83,East,88,3.0,3.0,46,0.00,,,0.00,1169,Wunderground v.1.15,2013-07-18 19:40:00,
2013-07-18 12:50:00,81.9,57.8,29.83,East,94,3.0,15.0,44,0.00,,,0.00,269,Wunderground v.1.15,2013-07-18 19:50:00,
2013-07-18 13:00:00,81.9,58.5,29.82,East,87,6.0,6.0,45,0.00,,,0.00,1257,Wunderground v.1.15,2013-07-18 20:00:00,
2013-07-18 13:10:00,82.1,59.3,29.82,SSW,194,3.0,15.0,46,0.00,,,0.00,1229,Wunderground v.1.15,2013-07-18 20:10:00,
2013-07-18 13:20:00,82.6,59.1,29.82,ENE,60,3.0,3.0,45,0.00,,,0.00,670,Wunderground v.1.15,2013-07-18 20:20:00,
2013-07-18 13:30:00,82.4,58.3,29.81,North,5,2.0,2.0,44,0.00,,,0.00,332,Wunderground v.1.15,2013-07-18 20:30:00,
2013-07-18 13:40:00,82.4,58.3,29.81,North,355,0.0,15.0,44,0.00,,,0.00,455,Wunderground v.1.15,2013-07-18 20:40:00,
2013-07-18 13:50:00,82.0,58.6,29.81,ESE,109,1.0,1.0,45,0.00,,,0.00,176,Wunderground v.1.15,2013-07-18 20:50:00,
2013-07-18 14:00:00,81.6,58.8,29.81,SSE,158,0.0,15.0,46,0.00,,,0.00,169,Wunderground v.1.15,2013-07-18 21:00:00,
2013-07-18 14:10:00,81.2,59.1,29.80,ESE,111,3.0,15.0,47,0.00,,,0.00,190,Wunderground v.1.15,2013-07-18 21:10:00,
2013-07-18 14:20:00,80.8,59.3,29.80,NE,34,3.0,15.0,48,0.00,,,0.00,179,Wunderground v.1.15,2013-07-18 21:20:00,
2013-07-18 14:30:00,80.4,59.5,29.80,NE,38,5.0,15.0,49,0.00,,,0.00,190,Wunderground v.1.15,2013-07-18 21:30:00,
2013-07-18 14:40:00,80.1,59.2,29.79,ENE,58,6.0,15.0,49,0.00,,,0.00,220,Wunderground v.1.15,2013-07-18 21:40:00,
2013-07-18 14:50:00,79.9,59.0,29.79,East,90,5.0,15.0,49,0.00,,,0.00,202,Wunderground v.1.15,2013-07-18 21:50:00,
2013-07-18 15:00:00,80.1,58.6,29.79,East,98,3.0,3.0,48,0.00,,,0.00,181,Wunderground v.1.15,2013-07-18 22:00:00,
2013-07-18 15:10:00,80.4,59.5,29.79,ENE,66,2.0,2.0,49,0.00,,,0.00,262,Wunderground v.1.15,2013-07-18 22:10:00,
2013-07-18 15:20:00,80.8,59.3,29.79,SSE,153,2.0,7.0,48,0.00,,,0.00,265,Wunderground v.1.15,2013-07-18 22:20:00,
2013-07-18 15:30:00,80.8,59.3,29.78,ESE,116,5.0,5.0,48,0.00,,,0.00,214,Wunderground v.1.15,2013-07-18 22:30:00,
2013-07-18 15:40:00,80.5,59.6,29.77,SE,129,4.0,4.0,49,0.00,,,0.00,137,Wunderground v.1.15,2013-07-18 22:40:00,
2013-07-18 15:50:00,80.1,59.2,29.77,ESE,107,5.0,5.0,49,0.00,,,0.00,84,Wunderground v.1.15,2013-07-18 22:50:00,
2013-07-18 16:00:00,79.8,58.4,29.77,SSW,200,2.0,2.0,48,0.00,,,0.00,47,Wunderground v.1.15,2013-07-18 23:00:00,
2013-07-18 16:10:00,76.7,56.7,29.77,WNW,289,5.0,14.0,50,0.00,,,0.00,49,Wunderground v.1.15,2013-07-18 23:10:00,
2013-07-18 16:20:00,74.2,59.9,29.77,WSW,244,8.0,8.0,61,0.00,,,0.00,51,Wunderground v.1.15,2013-07-18 23:20:00,
2013-07-18 16:30:00,74.9,59.6,29.77,WSW,240,2.0,2.0,59,0.00,,,0.00,105,Wunderground v.1.15,2013-07-18 23:30:00,
2013-07-18 16:40:00,75.9,59.6,29.77,West,271,0.0,14.0,57,0.00,,,0.00,193,Wunderground v.1.15,2013-07-18 23:40:00,
2013-07-18 16:50:00,77.0,61.6,29.77,SE,143,1.0,14.0,59,0.00,,,0.00,156,Wunderground v.1.15,2013-07-18 23:50:00,
2013-07-18 17:00:00,77.8,59.8,29.77,East,96,5.0,14.0,54,0.00,,,0.00,111,Wunderground v.1.15,2013-07-19 00:00:00,
2013-07-18 17:10:00,78.3,59.2,29.78,East,89,6.0,7.0,52,0.00,,,0.00,132,Wunderground v.1.15,2013-07-19 00:10:00,
2013-07-18 17:20:00,78.7,59.6,29.78,ENE,78,4.0,4.0,52,0.00,,,0.00,114,Wunderground v.1.15,2013-07-19 00:20:00,
2013-07-18 17:30:00,78.3,59.2,29.78,ESE,116,6.0,6.0,52,0.00,,,0.00,107,Wunderground v.1.15,2013-07-19 00:30:00,
2013-07-18 17:40:00,78.1,59.6,29.78,East,85,4.0,4.0,53,0.00,,,0.00,135,Wunderground v.1.15,2013-07-19 00:40:00,
2013-07-18 17:50:00,78.1,59.0,29.78,ESE,118,5.0,9.0,52,0.00,,,0.00,95,Wunderground v.1.15,2013-07-19 00:50:00,
2013-07-18 18:00:00,77.8,59.3,29.78,East,101,7.0,10.0,53,0.00,,,0.00,90,Wunderground v.1.15,2013-07-19 01:00:00,
2013-07-18 18:10:00,77.3,59.4,29.79,ESE,119,7.0,7.0,54,0.00,,,0.00,137,Wunderground v.1.15,2013-07-19 01:10:00,
2013-07-18 18:20:00,77.1,60.2,29.79,ESE,109,5.0,14.0,56,0.00,,,0.00,107,Wunderground v.1.15,2013-07-19 01:20:00,
2013-07-18 18:30:00,76.9,60.0,29.78,ESE,115,6.0,14.0,56,0.00,,,0.00,188,Wunderground v.1.15,2013-07-19 01:30:00,
2013-07-18 18:40:00,76.9,60.0,29.79,East,98,4.0,14.0,56,0.00,,,0.00,86,Wunderground v.1.15,2013-07-19 01:40:00,
2013-07-18 18:50:00,76.6,59.7,29.80,SE,128,5.0,5.0,56,0.00,,,0.00,56,Wunderground v.1.15,2013-07-19 01:50:00,
2013-07-18 19:00:00,76.4,60.0,29.80,SE,130,2.0,14.0,57,0.00,,,0.00,25,Wunderground v.1.15,2013-07-19 02:00:00,
2013-07-18 19:10:00,76.0,59.7,29.80,ESE,118,3.0,11.0,57,0.00,,,0.00,12,Wunderground v.1.15,2013-07-19 02:10:00,
2013-07-18 19:20:00,75.7,59.9,29.81,SE,127,6.0,6.0,58,0.00,,,0.00,0,Wunderground v.1.15,2013-07-19 02:20:00,
2013-07-18 19:30:00,75.3,60.0,29.81,East,92,2.0,2.0,59,0.00,,,0.00,0,Wunderground v.1.15,2013-07-19 02:30:00,
2013-07-18 19:40:00,75.1,60.3,29.81,East,101,2.0,2.0,60,0.00,,,0.00,0,Wunderground v.1.15,2013-07-19 02:40:00,
2013-07-18 19:50:00,74.8,60.4,29.81,ESE,122,3.0,5.0,61,0.00,,,0.00,0,Wunderground v.1.15,2013-07-19 02:50:00,
2013-07-18 20:00:00,74.2,60.3,29.82,ESE,105,2.0,2.0,62,0.00,,,0.00,0,Wunderground v.1.15,2013-07-19 03:00:00,
2013-07-18 20:10:00,73.8,60.4,29.82,East,90,2.0,2.0,63,0.00,,,0.00,0,Wunderground v.1.15,2013-07-19 03:10:00,
2013-07-18 20:20:00,73.4,60.5,29.82,East,80,2.0,2.0,64,0.00,,,0.00,0,Wunderground v.1.15,2013-07-19 03:20:00,
2013-07-18 20:30:00,73.2,60.3,29.83,ENE,74,1.0,1.0,64,0.00,,,0.00,0,Wunderground v.1.15,2013-07-19 03:30:00,
2013-07-18 20:40:00,73.1,59.8,29.83,ESE,113,0.0,11.0,63,0.00,,,0.00,0,Wunderground v.1.15,2013-07-19 03:40:00,
2013-07-18 20:50:00,73.0,60.1,29.83,South,178,0.0,11.0,64,0.00,,,0.00,0,Wunderground v.1.15,2013-07-19 03:50:00,
2013-07-18 21:00:00,72.6,59.7,29.84,SE,140,1.0,1.0,64,0.00,,,0.00,0,Wunderground v.1.15,2013-07-19 04:00:00,
2013-07-18 21:10:00,72.3,59.9,29.84,ESE,119,3.0,5.0,65,0.00,,,0.00,0,Wunderground v.1.15,2013-07-19 04:10:00,
2013-07-18 21:20:00,72.0,60.0,29.84,ESE,114,5.0,5.0,66,0.00,,,0.00,0,Wunderground v.1.15,2013-07-19 04:20:00,
2013-07-18 21:30:00,71.9,59.9,29.85,ESE,107,6.0,6.0,66,0.00,,,0.00,0,Wunderground v.1.15,2013-07-19 04:30:00,
2013-07-18 21:40:00,72.1,59.7,29.85,ESE,109,6.0,7.0,65,0.00,,,0.00,0,Wunderground v.1.15,2013-07-19 04:40:00,
2013-07-18 21:50:00,72.0,60.0,29.85,SE,140,6.0,6.0,66,0.00,,,0.00,0,Wunderground v.1.15,2013-07-19 04:50:00,
2013-07-18 22:00:00,71.6,60.1,29.86,ESE,117,2.0,2.0,67,0.00,,,0.00,0,Wunderground v.1.15,2013-07-19 05:00:00,
2013-07-18 22:10:00,71.4,60.3,29.87,SE,130,0.0,6.0,68,0.00,,,0.00,0,Wunderground v.1.15,2013-07-19 05:10:00,
2013-07-18 22:20:00,71.3,60.6,29.87,South,176,0.0,6.0,69,0.00,,,0.00,0,Wunderground v.1.15,2013-07-19 05:20:00,
2013-07-18 22:30:00,70.8,61.7,29.87,SSE,147,0.0,6.0,73,0.00,,,0.00,0,Wunderground v.1.15,2013-07-19 05:30:00,
2013-07-18 22:40:00,70.0,62.1,29.87,SE,146,1.0,1.0,76,0.00,,,0.00,0,Wunderground v.1.15,2013-07-19 05:40:00,
2013-07-18 22:50:00,69.4,61.9,29.86,South,173,0.0,6.0,77,0.00,,,0.01,0,Wunderground v.1.15,2013-07-19 05:50:00,
2013-07-18 23:00:00,69.0,61.9,29.86,SSE,148,1.0,1.0,78,0.00,,,0.01,0,Wunderground v.1.15,2013-07-19 06:00:00,
2013-07-18 23:10:00,68.8,62.0,29.86,SE,139,1.0,1.0,79,0.00,,,0.01,0,Wunderground v.1.15,2013-07-19 06:10:00,
2013-07-18 23:20:00,68.5,62.1,29.85,SSE,165,0.0,6.0,80,0.00,,,0.01,0,Wunderground v.1.15,2013-07-19 06:20:00,
2013-07-18 23:30:00,68.3,62.6,29.85,South,171,0.0,6.0,82,0.00,,,0.01,0,Wunderground v.1.15,2013-07-19 06:30:00,
2013-07-18 23:40:00,68.1,62.7,29.84,South,186,0.0,6.0,83,0.00,,,0.01,0,Wunderground v.1.15,2013-07-19 06:40:00,
2013-07-18 23:50:00,67.9,62.9,29.84,South,181,0.0,6.0,84,0.00,,,0.01,0,Wunderground v.1.15,2013-07-19 06:50:00,